SCP
0 0 0 0 0 0 0 0 1 1 0 0 0 0 0 0 0 0 0 0 0 0 1 1 1 1 1 1 1 1 2 2 2 1 1 1 1 1 1 1 1 0 0 0
0 0 0 0 0 0 0 0 1 0 0 0 0 0 0 0 0 0 0 0 0 0 0 1 1 1 1 1 2 2 2 2 2 2 1 1 1 1 1 1 1 1 0 0
0 0 0 0 0 0 0 0 0 0 0 0 0 0 0 0 0 0 0 0 0 0 0 0 1 1 1 2 2 2 2 2 2 2 2 1 1 1 1 1 1 1 1 1
0 0 0 0 0 0 0 0 0 0 0 0 0 0 0 0 0 0 0 0 0 0 0 0 0 1 1 2 2 2 2 2 2 2 2 2 1 1 1 1 1 1 1 1
0 0 0 0 0 0 0 0 0 0 0 0 0 0 0 0 0 0 0 0 0 0 0 0 0 0 1 2 2 2 2 2 2 2 2 2 1 1 1 1 1 1 1 1
0 0 0 0 0 0 0 0 0 0 0 0 0 0 0 0 0 0 0 0 0 0 0 0 0 0 1 2 2 2 1 1 1 1 1 1 1 1 1 1 1 1 1 1
0 0 0 0 0 0 0 0 0 0 0 0 0 0 0 0 0 0 0 0 0 0 0 0 0 0 1 1 2 2 2 1 1 1 1 1 1 1 1 1 1 1 1 1
0 0 0 0 0 0 0 0 0 0 0 0 0 0 0 0 0 0 0 0 0 0 0 0 0 0 0 1 1 2 2 1 1 1 1 1 1 1 1 0 1 1 1 1
0 0 0 0 0 0 0 0 0 0 0 0 0 0 0 0 0 0 0 0 0 0 0 0 0 0 0 0 1 1 2 2 1 1 1 1 1 1 1 0 0 0 0 0
0 0 0 0 0 0 0 0 0 0 0 0 0 0 0 0 0 0 0 0 0 0 0 0 0 0 0 0 1 1 1 1 1 1 1 1 1 1 1 1 1 0 0 0
0 0 0 0 0 0 0 0 0 0 0 0 0 0 0 0 0 0 0 0 0 0 0 0 0 0 0 0 0 1 1 1 1 1 1 1 1 1 1 1 1 1 1 0
0 0 0 0 0 0 0 0 0 0 0 0 0 0 0 0 0 0 0 0 0 0 0 0 0 0 0 0 0 0 0 0 0 0 0 0 0 0 0 0 1 1 1 0
0 0 0 0 0 0 0 0 0 0 0 0 0 0 0 0 0 0 0 0 0 0 0 0 0 0 0 0 0 0 0 0 0 0 0 0 0 0 0 0 0 0 0 0
0 0 0 0 0 0 0 0 0 0 0 0 0 0 0 0 0 0 0 0 0 0 0 0 0 0 0 0 0 0 0 0 0 0 0 0 0 0 0 0 0 0 0 0
0 0 0 0 0 0 0 0 0 0 0 0 0 0 0 0 0 0 0 0 0 0 0 0 0 0 0 0 0 0 0 0 0 0 0 0 0 0 0 0 0 0 0 0
0 0 0 0 0 0 0 0 0 0 0 0 0 0 0 0 0 0 0 0 0 0 0 0 0 0 0 0 0 0 0 0 0 0 0 0 0 0 0 0 0 0 0 0
0 0 0 0 0 0 0 0 0 0 0 0 0 0 0 0 0 0 0 0 0 0 0 0 0 0 0 0 0 0 0 0 0 0 0 0 0 0 0 0 0 0 0 0
0 0 0 0 0 0 0 0 0 0 0 0 0 0 0 0 0 0 0 0 0 0 0 0 0 0 0 0 0 0 0 0 0 0 0 0 0 0 0 0 0 0 0 0
0 0 0 0 0 0 0 0 0 0 0 0 0 0 0 0 0 0 0 0 0 0 0 0 0 0 0 0 0 0 0 0 0 0 0 0 0 0 0 0 0 0 0 0
0 0 0 0 0 0 0 0 0 0 0 0 0 0 0 0 0 0 0 0 0 0 0 0 0 0 0 0 0 0 0 0 0 0 0 0 0 0 0 0 0 0 0 0
0 0 0 0 0 0 0 0 0 0 0 0 0 0 0 0 0 0 0 0 0 0 0 0 0 0 0 0 0 0 0 0 0 0 0 0 0 0 0 0 0 0 0 0
0 0 0 0 0 0 0 0 0 0 0 0 0 0 0 0 0 0 0 0 0 0 0 0 0 0 0 0 0 0 0 0 0 0 0 0 0 0 0 0 0 0 0 0
0 0 0 0 0 0 0 0 0 0 0 0 0 0 0 0 0 0 0 0 0 0 0 0 0 0 0 0 0 0 0 0 0 0 0 0 0 0 0 0 0 0 0 0
0 0 0 0 0 0 0 0 0 0 0 0 0 0 0 0 0 0 0 0 0 0 0 0 0 0 0 0 0 0 0 0 0 0 0 0 0 0 0 0 0 0 0 0
0 0 0 0 0 0 0 0 0 0 0 0 0 0 0 0 0 0 0 0 0 0 0 0 0 0 0 0 0 0 0 0 0 0 0 0 0 0 0 0 0 0 0 0
0 0 0 0 0 0 0 0 0 0 0 0 0 0 0 0 0 0 0 0 0 0 0 0 0 0 0 0 0 0 0 0 0 0 0 0 0 0 0 0 0 0 0 0
Wind_Speed
2 4 1 2 2 2 3 2 1 2 1 1 1 3 5 5 4 3 3 2 2 2 3 4 5 4 4 4 3 3 3 2 1 0 1 2 2 1 0 0 1 1 2 3
3 1 2 1 1 1 2 2 1 1 1 1 0 3 3 3 2 1 1 2 3 4 6 6 5 5 5 4 3 3 2 2 2 1 1 1 1 0 0 0 1 1 2 2
2 2 2 1 1 1 1 3 3 2 2 1 2 4 3 2 2 3 3 2 3 4 4 5 6 5 5 5 4 3 3 3 3 3 2 2 1 1 1 2 2 2 2 2
1 3 1 1 1 1 3 3 2 2 1 1 1 2 3 2 3 3 4 4 4 4 5 5 6 6 6 5 5 5 4 4 4 3 3 3 1 1 2 2 2 2 3 3
1 2 1 0 2 1 2 2 2 2 2 0 0 1 4 2 1 2 2 3 4 4 5 6 6 5 5 5 5 5 6 6 5 4 3 2 2 2 3 3 3 3 3 3
2 2 1 1 1 1 0 2 3 3 2 1 2 3 4 2 2 0 2 3 4 5 5 6 6 6 6 7 7 6 7 7 6 5 4 4 3 4 4 4 4 3 3 3
5 4 3 2 2 3 3 4 3 2 1 4 2 3 4 2 1 1 2 3 4 5 6 6 7 7 7 8 7 7 7 7 7 6 5 4 3 3 3 3 3 3 3 4
3 4 3 2 1 0 0 3 4 4 3 2 0 3 3 1 1 2 3 3 4 5 5 6 6 5 6 7 6 6 6 6 6 6 5 5 5 3 3 3 3 3 3 4
1 3 4 2 1 2 2 1 2 3 2 0 2 2 3 1 1 2 2 3 4 4 4 4 5 5 5 6 6 5 5 5 6 6 5 5 5 5 5 5 4 4 4 4
1 2 4 4 3 3 2 2 3 3 3 1 3 3 4 3 3 1 1 1 2 3 3 4 4 5 4 4 4 5 5 4 4 5 5 5 5 5 5 5 6 6 6 6
1 1 4 3 1 1 2 2 2 3 3 3 2 5 3 5 5 3 2 0 1 2 3 3 4 4 5 4 4 5 6 6 6 5 5 5 5 5 5 5 5 6 6 6
1 2 1 3 3 2 1 1 2 3 2 2 2 5 2 2 3 3 2 0 1 1 2 2 3 3 4 5 5 5 5 5 5 5 5 5 6 6 6 6 6 6 6 6
1 3 2 4 3 3 1 0 1 2 2 2 3 6 2 1 1 1 1 0 0 1 1 2 3 3 3 4 4 4 4 5 4 5 5 5 6 6 6 6 6 6 6 6
3 2 3 4 3 2 3 3 1 3 3 4 7 6 5 3 3 2 1 1 0 1 1 2 2 3 3 3 3 3 4 4 4 4 4 5 6 6 5 6 6 6 6 6
3 1 2 4 4 3 5 6 5 6 6 7 7 7 8 6 5 3 2 1 1 1 1 1 2 2 2 3 3 3 4 4 4 4 4 4 5 5 5 5 6 6 6 6
3 1 1 4 3 4 6 8 8 8 7 7 7 10 7 5 2 2 2 2 1 1 2 2 2 3 3 3 3 3 4 4 4 4 4 4 5 5 5 5 5 6 6 6
1 2 1 3 5 4 7 8 8 5 5 6 9 8 3 3 4 5 4 3 3 3 2 2 2 3 3 3 3 3 3 4 4 4 5 5 5 5 6 6 5 5 6 6
2 2 1 1 4 4 8 1 4 5 6 7 7 5 4 5 4 4 4 4 4 3 2 2 2 2 3 2 3 3 3 3 4 4 5 5 5 5 6 5 5 5 5 5
4 4 2 1 2 9 10 4 4 5 7 7 8 7 4 2 1 3 3 3 4 4 3 3 2 2 2 3 3 3 3 3 4 4 5 5 5 6 6 6 6 5 5 6
2 3 3 3 2 8 7 3 1 2 7 5 6 6 4 3 3 5 3 2 3 2 2 2 2 2 2 3 2 2 3 4 4 5 5 5 5 5 6 6 6 6 5 6
2 2 4 5 6 12 9 3 3 3 8 4 6 6 6 7 7 4 2 3 3 2 2 2 1 2 2 2 2 2 3 4 5 5 5 5 5 6 6 6 5 5 5 6
8 7 7 6 6 13 5 7 8 10 3 3 5 5 6 6 4 3 3 4 3 3 2 2 1 2 2 2 2 3 4 4 4 5 5 6 6 6 5 5 6 5 5 6
9 10 8 12 12 6 6 9 7 4 5 5 5 5 5 5 5 5 4 5 4 4 3 2 2 3 3 2 2 4 5 4 4 5 5 5 6 6 6 5 6 5 5 4
6 5 5 8 13 10 8 8 7 6 7 6 6 6 6 6 6 6 5 5 4 4 3 2 2 4 4 3 3 3 4 4 4 5 5 5 5 6 5 5 4 4 4 5
8 7 6 10 11 8 9 12 11 9 7 6 6 6 7 7 7 6 6 6 5 4 3 3 3 5 5 4 4 3 3 3 4 5 5 5 5 5 5 5 5 6 6 6
10 12 11 13 11 9 8 7 8 9 9 9 8 6 6 7 8 6 6 5 4 4 3 3 4 5 5 4 4 4 3 3 4 5 5 4 4 4 4 5 6 9 10 12
Wind_Direction
27 68 89 219 192 162 144 140 181 234 271 78 243 299 320 329 11 39 41 35 29 8 358 15 21 27 34 34 36 36 39 23 44 251 223 212 211 225 248 288 299 251 243 235
47 8 288 240 164 106 136 148 191 297 341 98 62 312 322 356 24 45 67 29 16 8 18 23 25 29 29 31 31 31 28 30 29 333 257 242 225 196 195 313 336 338 320 301
101 286 296 84 73 136 209 191 206 239 340 23 60 338 337 355 39 42 38 47 45 34 25 25 27 25 24 21 21 22 20 29 25 18 26 27 41 13 8 350 331 324 321 334
337 313 354 112 172 181 244 232 204 201 115 291 109 278 302 324 14 31 28 28 31 27 26 27 29 29 26 15 16 25 21 23 24 32 39 48 34 323 314 331 342 352 2 355
300 317 22 90 260 206 239 264 197 176 145 84 64 180 285 318 335 352 18 29 26 27 31 32 29 28 26 24 28 26 28 27 25 36 41 43 20 355 1 8 358 345 342 345
302 304 288 266 289 194 155 57 62 67 85 230 220 180 271 268 252 325 31 32 29 28 29 31 25 24 23 24 30 28 31 26 21 29 34 38 27 18 16 9 357 344 335 336
351 347 347 15 30 24 63 92 62 27 9 245 217 183 245 253 246 156 98 43 30 33 31 28 24 23 21 22 23 23 27 21 18 25 26 22 20 23 15 354 341 336 332 331
25 325 327 359 84 204 198 132 146 174 203 264 266 215 245 256 85 89 100 78 43 33 30 31 24 22 21 21 21 22 23 18 16 19 16 16 14 11 2 353 343 332 325 322
50 297 312 322 319 130 110 141 148 122 69 72 256 270 295 345 44 54 68 57 41 29 23 24 20 19 19 18 15 15 21 17 13 13 14 16 12 11 5 359 355 349 341 339
170 286 307 321 20 28 100 120 97 116 140 230 266 235 225 222 223 254 33 56 30 23 20 19 17 14 13 16 11 14 16 12 6 10 14 12 10 6 3 5 2 352 347 345
44 87 324 5 33 309 49 88 101 121 156 164 234 260 221 207 202 196 200 164 37 18 12 14 10 7 9 14 17 17 13 12 12 12 12 13 12 11 9 6 359 352 348 347
359 94 316 287 290 293 145 151 140 151 230 207 216 265 295 192 176 166 178 201 31 23 15 14 9 9 10 13 16 17 11 9 6 8 13 12 10 9 9 5 355 351 349 346
38 90 19 346 339 358 14 247 171 148 136 183 200 260 313 104 123 170 175 187 43 33 15 15 15 5 5 7 8 10 7 2 3 10 14 11 7 7 2 358 352 351 350 350
67 109 170 207 240 268 283 270 223 161 188 223 231 246 269 268 271 270 253 184 90 352 7 19 8 357 354 359 0 1 359 359 1 6 9 7 0 356 354 351 348 347 349 351
70 130 249 270 288 273 262 258 241 219 215 219 240 239 250 247 254 250 210 197 248 331 353 345 339 337 337 344 352 354 354 352 354 2 3 355 350 349 351 351 346 345 348 347
48 114 340 302 308 292 274 258 243 239 232 238 251 260 252 248 234 231 212 217 238 270 288 303 320 325 327 331 337 347 350 347 350 356 351 347 350 349 348 345 342 340 342 341
42 93 46 290 320 351 280 244 215 216 216 207 230 245 241 228 228 224 218 219 221 240 255 271 287 299 309 316 323 328 334 343 351 350 345 345 344 342 338 336 337 335 333 332
153 114 120 322 16 252 248 262 204 221 239 225 239 247 226 228 240 233 210 209 227 241 248 264 278 294 308 316 324 329 336 340 343 342 338 336 334 330 327 327 326 322 321 319
182 152 125 116 277 281 289 260 201 208 263 235 231 243 236 243 314 269 234 207 221 232 243 252 265 287 301 309 314 329 333 336 335 330 327 324 323 321 321 320 317 315 314 313
133 140 137 152 205 247 254 238 193 105 276 248 209 222 212 161 247 259 231 225 239 242 244 254 273 291 296 300 310 322 318 322 319 318 318 319 319 314 311 310 308 309 308 306
157 169 183 195 231 260 251 215 123 173 250 225 197 206 192 203 227 237 213 236 236 240 250 257 261 279 284 299 323 318 314 312 315 319 319 317 315 309 305 306 306 308 307 307
183 180 195 174 210 253 212 154 191 221 237 197 201 205 209 228 241 231 224 231 233 242 251 248 255 284 297 310 315 306 302 312 322 320 316 313 312 309 310 309 308 309 307 304
207 197 190 196 218 241 191 206 223 208 216 217 212 219 210 220 230 231 233 235 237 238 243 252 251 281 297 306 297 285 298 314 317 312 305 305 308 310 311 307 305 305 302 296
241 200 209 246 256 251 244 246 247 224 224 228 219 214 205 216 228 232 236 240 243 247 249 257 263 275 287 296 299 287 299 309 306 298 300 304 307 308 309 304 297 291 290 289
220 187 215 250 264 277 257 237 236 236 234 233 227 215 211 213 226 227 232 238 240 248 253 251 252 264 274 283 286 293 300 300 293 292 295 300 298 298 301 297 288 287 277 273
200 192 201 233 228 215 241 229 214 216 225 222 218 225 222 215 225 228 234 236 237 245 253 257 257 263 271 274 277 285 290 284 280 288 293 293 293 294 294 298 301 293 289 293